Weather in Krasny Tkach

Russia / Ivanovo Oblast     56°50′49″N   40°32′54″E
temp.,
°C
wind,
m/s
gust,
m/s
humid.,
%
clouds,
%
prec.,
mm/h
press.,
hPa
HPBL,
m
4 march, thu
thu400:00−1wsw41092100 0.1 1003736
03:00−1wsw61295100 0.6 1000767
06:00+1w71397100 1.8 9961041
09:00+1w71491100 2.4 9951262
12:00−1wnw6107978 0.2 9961238
15:00−1wnw598081 0.3 9981096
18:00−5nw249071 0.1 99978
21:00−8nw239236 0.1 100038
5 march, fri
fri500:00−10nw22940 0.0 100121
03:00−11wnw22940 0.0 100321
06:00−12wnw23950 0.0 100430
09:00−9w249414 0.0 1005178
12:00−5wnw358899 0.2 1006553
15:00−4wnw4680100 0.5 1007999
18:00−7wnw398987 0.2 1009263
21:00−11nnw3108771 0.3 1013300
6 march, sat
sat600:00−15nw22910 0.0 101420
03:00−16w22920 0.0 101621
06:00−16wnw22920 0.0 101620
09:00−13w248814 0.0 1016162
12:00−9wnw248599 0.0 1016649
15:00−8wnw347998 0.1 1015836
18:00−13w229174 0.0 101521
21:00−15sw239337 0.0 101536
7 march, sun
sun700:00−14ssw38910 0.0 1012174
03:00−13ssw512900 0.0 1009312
06:00−10ssw6139399 0.1 1004628
09:00−8ssw7148999 0.9 1000828
12:00−5ssw71492100 1.2 9951097
15:00−4ssw71293100 3.0 9921004
18:00−6nw61287100 1.4 9931054
21:00−10w398090 2.2 995228
8 march, mon
mon800:00−11sw3119535 0.3 995387
03:00−10sw3128867 0.3 994386
06:00−8ssw41091100 0.0 993513
09:00−8ssw3794100 0.5 993466
12:00−7nw5892100 0.9 995649
15:00−7nw61090100 1.4 998872
18:00−10nw51288100 0.1 1002643
21:00−10wnw4119298 0.1 1006576